Location: Mohawk View
(42.7837°N, 73.7885°W)
Time: 08:43:32
(UTC+00:00)

Cosmos 1408 - Pass Details

Date: 17 June 2021
Orbit: 466 x 492 km, 82.6° (Epoch: 27 July)

Event Time Altitude Azimuth Distance (km) Brightness Sun altitude
Exits shadow 06:20:03 44° 284° (WNW) 687 3.2 -21.1°
Drops below altitude 10° 06:23:33 10° 355° (N) 1,688 6.2 -20.8°
Sets 06:25:45 0° 2° (N) 2,578 7.5 -20.7°
